EW7343 Weather Reports


time (UTC)temp
C
wind
direction
speed
KPH
gust
KPH
rain 1hr
cm
rain 24hr
cm
rain mn
cm
humidity
%
barometer
mb
20260507192716 16 295 6.4 14.5 0.00 0.53 0.03 33 1004.5
20260507192215 16 286 6.4 14.5 0.00 0.53 0.03 34 1004.4
20260507191716 16 305 4.8 14.5 0.00 0.56 0.03 37 1004.4
20260507191435 16 349 4.8 14.5 0.00 0.56 0.03 35 1004.6
20260507190716 15 326 4.8 14.5 0.00 0.58 0.03 35 1004.6
20260507190216 16 43 6.4 14.5 0.00 0.58 0.03 34 1004.7
20260507185716 16 60 6.4 22.5 0.00 0.61 0.03 33 1004.7
20260507185216 16 326 6.4 22.5 0.00 0.61 0.03 35 1004.7
20260507184716 16 321 6.4 16.1 0.00 0.64 0.03 34 1004.6
20260507184216 16 328 4.8 16.1 0.00 0.64 0.03 35 1004.7
20260507183936 16 339 6.4 17.7 0.00 0.66 0.03 35 1004.6
20260507183213 16 327 6.4 17.7 0.00 0.66 0.03 33 1004.7
20260507182713 16 346 6.4 16.1 0.00 0.69 0.03 35 1004.7
20260507182213 16 235 6.4 24.1 0.00 0.69 0.03 35 1004.7
20260507181711 16 330 6.4 24.1 0.00 0.71 0.03 34 1004.7
20260507181434 16 319 6.4 24.1 0.00 0.76 0.03 35 1004.7
20260507180712 16 39 6.4 17.7 0.00 0.76 0.03 33 1004.8
20260507180223 16 284 6.4 19.3 0.00 0.76 0.03 35 1004.7
20260507175710 16 257 8.0 19.3 0.00 0.76 0.03 36 1004.7
20260507175211 16 341 8.0 19.3 0.00 0.76 0.03 35 1004.6
20260507174711 16 93 6.4 17.7 0.00 0.76 0.03 37 1004.6
20260507174212 16 321 6.4 17.7 0.00 0.76 0.03 41 1004.6
20260507173712 16 22 4.8 17.7 0.00 0.76 0.03 39 1004.6
20260507173212 16 68 3.2 12.9 0.00 0.76 0.03 37 1004.7
20260507173158 16 318 6.4 14.5 0.00 0.76 0.03 39 1004.7
20260507172425 16 256 6.4 14.5 0.00 0.76 0.03 39 1004.8
20260507171709 16 183 6.4 14.5 0.00 0.76 0.03 40 1005.0
20260507171209 16 316 6.4 16.1 0.00 0.76 0.03 39 1005.1
20260507170709 15 55 6.4 16.1 0.00 0.76 0.03 40 1005.1
20260507170209 15 42 4.8 16.1 0.00 0.76 0.03 42 1005.2
20260507165709 15 218 3.2 16.1 0.00 0.76 0.03 46 1005.4
20260507165210 15 305 3.2 14.5 0.00 0.76 0.03 48 1005.4
20260507164709 15 189 4.8 12.9 0.00 0.76 0.03 48 1005.4
20260507164428 15 349 4.8 25.7 0.00 0.76 0.03 49 1005.5
20260507163709 15 314 6.4 25.7 0.00 0.76 0.03 48 1005.6
20260507163209 15 322 6.4 25.7 0.00 0.76 0.03 50 1005.5
20260507162926 15 33 4.8 17.7 0.00 0.76 0.03 54 1005.6
20260507162207 16 2 4.8 16.1 0.00 0.76 0.03 50 1005.5
20260507161707 15 157 4.8 12.9 0.00 0.76 0.03 55 1005.6
20260507161208 15 351 4.8 17.7 0.00 0.76 0.03 52 1005.7
20260507160708 15 346 4.8 17.7 0.00 0.76 0.03 54 1005.7
20260507160204 14 318 4.8 16.1 0.00 0.76 0.03 53 1005.9
20260507155704 13 41 4.8 16.1 0.00 0.76 0.03 54 1006.0
20260507155204 14 282 4.8 16.1 0.00 0.76 0.03 55 1006.0
20260507154704 14 319 4.8 14.5 0.00 0.76 0.03 55 1006.0
20260507154204 15 348 3.2 11.3 0.00 0.76 0.03 55 1006.0
20260507153931 14 50 4.8 14.5 0.00 0.76 0.03 56 1006.1
20260507153204 15 58 4.8 14.5 0.00 0.76 0.03 55 1006.2
20260507152705 15 333 4.8 20.9 0.00 0.76 0.03 54 1006.2
20260507152646 15 135 4.8 20.9 0.00 0.76 0.03 55 1006.2
20260507152153 15 63 4.8 17.7 0.00 0.76 0.03 52 1006.3
20260507151203 15 29 4.8 16.1 0.00 0.76 0.03 50 1006.3
20260507150701 15 107 3.2 14.5 0.00 0.76 0.03 51 1006.4
20260507150643 14 317 4.8 17.7 0.00 0.76 0.03 53 1006.5
20260507145701 14 313 4.8 17.7 0.00 0.76 0.03 54 1006.5
20260507145422 13 304 4.8 12.9 0.00 0.76 0.03 54 1006.5
20260507144702 13 40 4.8 14.5 0.00 0.76 0.03 56 1006.5
20260507144202 13 239 4.8 14.5 0.00 0.76 0.03 57 1006.5
20260507143919 14 279 4.8 12.9 0.00 0.76 0.03 58 1006.4
20260507143202 14 307 4.8 12.9 0.00 0.76 0.03 54 1006.4
20260507142703 14 302 4.8 17.7 0.00 0.76 0.03 55 1006.3
20260507142201 13 334 4.8 17.7 0.00 0.76 0.03 57 1006.3
20260507141701 13 40 3.2 16.1 0.00 0.76 0.03 56 1006.4
20260507141201 13 323 4.8 14.5 0.00 0.76 0.03 54 1006.4
20260507140702 13 22 4.8 14.5 0.00 0.76 0.03 57 1006.4
20260507140202 13 42 4.8 12.9 0.00 0.76 0.03 55 1006.4
20260507135702 13 289 3.2 17.7 0.00 0.76 0.03 57 1006.4
20260507135427 13 148 3.2 17.7 0.00 0.76 0.03 57 1006.5
20260507134701 13 311 3.2 12.9 0.00 0.76 0.03 59 1006.5
20260507134202 13 317 3.2 9.7 0.00 0.76 0.03 60 1006.6
20260507133702 13 326 3.2 11.3 0.00 0.76 0.03 59 1006.7
20260507133202 13 0 3.2 11.3 0.00 0.76 0.03 62 1006.8
20260507132928 13 354 3.2 12.9 0.00 0.76 0.03 61 1006.9
20260507132202 12 341 3.2 12.9 0.00 0.76 0.03 62 1006.9
20260507131702 12 331 3.2 9.7 0.00 0.76 0.03 64 1006.9
20260507131202 12 132 3.2 14.5 0.00 0.76 0.03 64 1006.9
20260507130702 12 315 4.8 14.5 0.00 0.76 0.03 65 1006.8
20260507130202 12 297 4.8 14.5 0.00 0.76 0.03 63 1006.9
20260507125702 12 0 3.2 12.9 0.00 0.76 0.03 66 1006.9
20260507125202 11 48 4.8 12.9 0.00 0.76 0.03 62 1007.0
20260507124702 11 301 4.8 12.9 0.00 0.76 0.03 64 1007.1
20260507124202 11 285 3.2 11.3 0.00 0.76 0.03 64 1007.1
20260507123702 11 303 4.8 14.5 0.00 0.76 0.03 67 1007.2
20260507123202 11 10 4.8 14.5 0.00 0.76 0.03 68 1007.3
20260507122703 11 1 3.2 9.7 0.00 0.76 0.03 71 1007.3
20260507122203 10 1 4.8 9.7 0.00 0.76 0.03 71 1007.3
20260507121702 10 313 3.2 9.7 0.00 0.76 0.03 75 1007.3
20260507121202 10 348 3.2 9.7 0.00 0.76 0.03 75 1007.3
20260507120714 10 28 3.2 6.4 0.00 0.76 0.03 77 1007.4
20260507120202 10 313 3.2 6.4 0.00 0.76 0.03 79 1007.4
20260507115702 10 35 3.2 8.0 0.00 0.76 0.03 79 1007.4
20260507115202 9 43 3.2 8.0 0.00 0.76 0.03 80 1007.3
20260507114702 9 306 3.2 11.3 0.00 0.76 0.03 80 1007.3
20260507114202 9 9 4.8 11.3 0.00 0.76 0.03 81 1007.3
20260507113701 9 342 4.8 11.3 0.00 0.76 0.03 82 1007.2
20260507113202 9 356 3.2 6.4 0.00 0.76 0.03 83 1007.3
20260507112702 8 338 1.6 6.4 0.00 0.76 0.03 84 1007.3
20260507112202 8 323 3.2 6.4 0.00 0.76 0.03 84 1007.4
20260507111702 8 302 3.2 6.4 0.00 0.76 0.03 85 1007.3
20260507111203 8 4 1.6 6.4 0.00 0.76 0.03 85 1007.2
20260507110702 8 346 3.2 8.0 0.00 0.76 0.03 85 1007.2
20260507110202 8 0 3.2 8.0 0.00 0.76 0.03 87 1007.1
20260507105702 8 303 1.6 4.8 0.00 0.76 0.03 87 1007.1
20260507105202 8 0 1.6 4.8 0.00 0.76 0.03 88 1007.2
20260507104703 8 323 1.6 4.8 0.00 0.76 0.03 87 1007.1
20260507104203 8 0 1.6 4.8 0.00 0.76 0.03 87 1007.1
20260507103702 8 318 0.0 4.8 0.00 0.76 0.03 88 1007.2
20260507103202 8 350 1.6 9.7 0.00 0.76 0.03 88 1007.2
20260507102701 8 319 3.2 9.7 0.00 0.76 0.03 88 1007.2
20260507102202 8 314 3.2 9.7 0.00 0.76 0.03 87 1007.0
20260507101702 8 310 3.2 6.4 0.00 0.76 0.03 88 1007.0
20260507101418 8 316 3.2 6.4 0.00 0.76 0.03 88 1007.2
20260507100702 8 350 1.6 3.2 0.00 0.76 0.03 88 1007.3
20260507100215 8 342 1.6 4.8 0.00 0.76 0.03 88 1007.2
20260507095702 8 0 1.6 6.4 0.00 0.76 0.03 88 1007.2
20260507095424 8 325 1.6 6.4 0.00 0.76 0.03 88 1007.1
20260507094702 8 15 1.6 9.7 0.00 0.76 0.03 89 1007.0
20260507094203 8 14 1.6 9.7 0.00 0.76 0.03 89 1006.9
20260507093702 8 307 1.6 9.7 0.00 0.76 0.03 89 1006.9
20260507093204 8 356 3.2 6.4 0.00 0.76 0.03 90 1007.0
20260507092702 8 0 1.6 4.8 0.00 0.76 0.03 89 1007.0
20260507092203 8 326 1.6 3.2 0.00 0.76 0.03 89 1007.1
20260507091702 8 295 1.6 4.8 0.00 0.76 0.03 90 1007.0
20260507091202 8 316 3.2 4.8 0.03 0.76 0.03 90 1006.6
20260507090929 8 359 1.6 4.8 0.03 0.76 0.03 90 1007.2
20260507090203 8 5 1.6 6.4 0.03 0.76 0.03 89 1007.0
20260507085702 8 307 3.2 6.4 0.03 0.76 0.03 90 1006.7
20260507085203 8 46 3.2 6.4 0.03 0.76 0.03 90 1006.5
20260507084702 8 343 3.2 6.4 0.03 0.76 0.03 89 1006.5
20260507084204 8 48 3.2 6.4 0.03 0.76 0.03 90 1006.6
20260507083703 8 340 3.2 6.4 0.03 0.76 0.03 90 1006.5
20260507083203 8 312 3.2 6.4 0.03 0.76 0.03 90 1006.5
20260507082702 9 318 3.2 6.4 0.03 0.76 0.03 90 1006.5
20260507082202 9 324 1.6 4.8 0.03 0.76 0.03 89 1006.2
20260507081702 9 319 3.2 8.0 0.03 0.76 0.03 89 1006.3
20260507081649 9 0 3.2 8.0 0.00 0.76 0.00 89 1006.6
20260507080928 9 332 3.2 8.0 0.00 0.76 0.00 89 1006.8
20260507080202 9 321 3.2 9.7 0.00 0.76 0.00 88 1006.8
20260507075922 9 303 3.2 12.9 0.00 0.74 0.00 87 1006.5
20260507075202 9 0 3.2 12.9 0.00 0.74 0.00 87 1006.4
20260507074702 9 43 3.2 11.3 0.00 0.74 0.00 87 1006.4
20260507074202 9 0 3.2 11.3 0.00 0.74 0.00 87 1006.3
20260507073702 10 317 3.2 16.1 0.00 0.74 0.00 88 1006.2
20260507073201 10 0 3.2 16.1 0.00 0.74 0.00 87 1006.3
20260507072659 10 293 3.2 12.9 0.00 0.74 0.00 88 1006.1
20260507072200 10 38 3.2 9.7 0.00 0.74 0.00 89 1006.1
20260507071700 10 330 3.2 9.7 0.00 0.74 0.00 89 1006.3
20260507071200 10 310 3.2 9.7 0.00 0.74 0.00 89 1006.3
20260507070700 10 309 3.2 11.3 0.00 0.74 0.00 90 1006.1
20260507070424 10 32 4.8 12.9 0.00 0.74 0.00 89 1005.9
20260507065700 10 304 3.2 12.9 0.00 0.74 0.00 89 1006.1
20260507065200 10 0 3.2 12.9 0.00 0.74 0.00 90 1006.1
20260507064700 10 0 3.2 12.9 0.00 0.74 0.00 89 1006.1
20260507064200 10 356 3.2 11.3 0.00 0.74 0.00 89 1005.9
20260507063701 10 338 3.2 12.9 0.00 0.74 0.00 89 1005.9
20260507063157 10 306 4.8 12.9 0.00 0.74 0.00 89 1005.9
20260507062657 10 322 3.2 11.3 0.00 0.74 0.00 89 1005.9
20260507062157 10 324 3.2 9.7 0.00 0.74 0.00 89 1005.9
20260507061658 10 307 3.2 11.3 0.00 0.74 0.00 89 1006.0
20260507061157 10 50 3.2 11.3 0.00 0.74 0.00 89 1006.0
20260507060918 10 309 3.2 11.3 0.00 0.74 0.00 89 1006.0
20260507060155 10 311 1.6 8.0 0.00 0.74 0.00 89 1006.1
20260507055655 10 0 1.6 8.0 0.00 0.74 0.00 90 1006.0
20260507055155 10 0 1.6 9.7 0.00 0.74 0.00 90 1006.1
20260507054655 10 291 3.2 11.3 0.00 0.74 0.00 90 1006.0
20260507054207 10 0 3.2 11.3 0.00 0.74 0.00 90 1006.0
20260507053655 10 0 3.2 16.1 0.00 0.74 0.00 90 1005.9
20260507053155 10 317 4.8 16.1 0.00 0.74 0.00 90 1006.1
20260507052655 10 0 3.2 16.1 0.00 0.74 0.00 90 1006.1
20260507052153 10 314 3.2 9.7 0.00 0.74 0.00 90 1006.1
20260507051653 10 201 3.2 9.7 0.00 0.74 0.00 90 1005.9
20260507051150 11 323 3.2 11.3 0.00 0.74 0.00 91 1005.7
20260507050650 11 50 3.2 11.3 0.00 0.74 0.00 90 1005.8
20260507050150 11 247 3.2 12.9 0.00 0.74 0.00 90 1005.7
20260507045650 11 321 3.2 12.9 0.00 0.74 0.00 90 1006.0
20260507045150 11 157 3.2 11.3 0.00 0.74 0.00 90 1006.0
20260507044651 11 78 1.6 8.0 0.00 0.74 0.00 91 1006.0
20260507044150 11 322 1.6 9.7 0.00 0.74 0.00 91 1006.0
20260507043650 11 273 1.6 9.7 0.00 0.74 0.00 91 1006.1
20260507043408 11 193 1.6 8.0 0.00 0.74 0.00 90 1006.1
20260507042650 11 340 1.6 8.0 0.00 0.74 0.00 90 1005.8
20260507042631 11 357 1.6 8.0 0.00 0.74 0.00 91 1005.8
20260507041650 11 0 1.6 8.0 0.00 0.74 0.00 90 1005.7
20260507041148 12 245 3.2 9.7 0.00 0.74 0.00 90 1005.7
20260507040912 12 298 3.2 11.3 0.00 0.74 0.00 90 1005.6
20260507040148 12 63 3.2 11.3 0.00 0.74 0.00 90 1005.7
20260507035648 12 257 3.2 9.7 0.00 0.74 0.74 90 1005.4
20260507035148 12 121 3.2 12.9 0.00 0.74 0.74 90 1005.3
20260507034647 12 219 3.2 12.9 0.00 0.74 0.74 89 1005.2
20260507034148 13 0 3.2 14.5 0.00 0.74 0.74 89 1005.3
20260507033648 13 16 3.2 14.5 0.00 0.74 0.74 88 1005.3
20260507033430 13 44 3.2 11.3 0.00 0.74 0.74 89 1005.3
20260507032649 13 318 4.8 14.5 0.00 0.74 0.74 90 1005.4
20260507032148 14 269 4.8 16.1 0.00 0.74 0.74 90 1005.5
20260507031645 14 315 3.2 16.1 0.00 0.74 0.74 92 1005.3
20260507031146 14 32 3.2 8.0 0.00 0.74 0.74 92 1005.2
20260507030646 15 317 3.2 14.5 0.00 0.74 0.74 92 1005.0
20260507030146 15 302 3.2 14.5 0.00 0.74 0.74 93 1004.9
20260507025645 15 210 1.6 14.5 0.00 0.74 0.74 94 1004.9
20260507025413 15 357 3.2 8.0 0.00 0.74 0.74 94 1004.8
20260507024646 15 353 1.6 8.0 0.00 0.74 0.74 94 1004.8
20260507024146 15 0 1.6 6.4 0.00 0.74 0.74 94 1004.6
20260507023645 15 0 1.6 6.4 0.00 0.74 0.74 94 1004.6
20260507023408 15 0 1.6 6.4 0.00 0.74 0.74 94 1004.5
20260507022646 15 175 1.6 6.4 0.00 0.74 0.74 94 1004.6
20260507022627 15 145 1.6 4.8 0.00 0.74 0.74 94 1004.5
20260507021643 15 328 1.6 4.8 0.00 0.74 0.74 94 1004.6
20260507021140 15 189 1.6 9.7 0.00 0.74 0.74 94 1004.6
20260507020640 15 0 1.6 9.7 0.00 0.74 0.74 94 1004.7
20260507020354 15 185 1.6 4.8 0.00 0.74 0.74 94 1004.8
20260507015637 15 0 1.6 4.8 0.00 0.74 0.74 94 1004.8
20260507015134 15 0 1.6 6.4 0.00 0.74 0.74 94 1004.8
20260507014635 15 0 1.6 6.4 0.00 0.74 0.74 94 1004.9
20260507014135 15 0 0.0 4.8 0.00 0.74 0.74 94 1004.9
20260507013634 15 222 1.6 6.4 0.00 0.74 0.74 94 1004.9
20260507013133 15 190 1.6 8.0 0.00 0.74 0.74 94 1004.9
20260507012634 15 204 0.0 8.0 0.00 0.74 0.74 94 1004.9
20260507012134 15 0 0.0 4.8 0.00 0.74 0.74 94 1004.9
20260507011634 15 201 1.6 4.8 0.00 0.74 0.74 94 1005.0
20260507011134 15 0 0.0 4.8 0.00 0.74 0.74 94 1004.9
20260507010634 15 0 1.6 9.7 0.00 0.74 0.74 94 1004.9
20260507010134 15 0 1.6 9.7 0.00 0.74 0.74 94 1004.9
20260507005634 15 264 1.6 6.4 0.00 0.74 0.74 94 1004.9
20260507005133 15 232 1.6 6.4 0.00 0.74 0.74 94 1004.9
20260507004633 15 183 1.6 6.4 0.03 0.74 0.74 94 1004.9
20260507004133 15 218 1.6 6.4 0.03 0.74 0.74 94 1005.0
20260507003632 15 0 1.6 6.4 0.03 0.74 0.74 94 1004.9
20260507003132 15 222 1.6 6.4 0.03 0.74 0.74 94 1004.8
20260507002853 15 0 1.6 6.4 0.03 0.74 0.74 94 1004.9
20260507002133 15 226 1.6 6.4 0.05 0.74 0.74 94 1004.8
20260507001633 15 0 1.6 6.4 0.05 0.74 0.74 94 1004.8
20260507001133 15 257 1.6 6.4 0.05 0.74 0.74 94 1004.7
20260507000633 15 0 0.0 4.8 0.05 0.74 0.74 94 1004.7
20260507000409 15 0 0.0 4.8 0.05 0.74 0.74 94 1004.7
20260506235856 15 0 1.6 9.7 0.05 0.74 0.74 94 1004.7
20260506235133 15 0 1.6 9.7 0.05 0.74 0.74 94 1004.7
20260506234631 15 241 1.6 8.0 0.03 0.71 0.71 94 1004.7
20260506234131 15 246 1.6 8.0 0.03 0.71 0.71 94 1004.6
20260506233633 15 0 1.6 6.4 0.03 0.71 0.71 94 1004.6
20260506233130 15 222 1.6 6.4 0.03 0.71 0.71 94 1004.6
20260506232852 15 261 1.6 6.4 0.03 0.71 0.71 94 1004.7
20260506232130 15 143 1.6 8.0 0.00 0.69 0.69 94 1004.8
20260506231630 15 0 1.6 8.0 0.00 0.69 0.69 93 1004.9
20260506231130 15 280 1.6 8.0 0.00 0.69 0.69 94 1004.9
20260506230630 15 266 1.6 4.8 0.00 0.69 0.69 94 1004.8
20260506230130 15 126 1.6 9.7 0.03 0.69 0.69 93 1004.8
20260506225630 15 0 3.2 9.7 0.05 0.69 0.69 93 1004.8
20260506225129 15 220 1.6 9.7 0.10 0.69 0.69 94 1004.8
20260506224847 15 0 1.6 8.0 0.10 0.69 0.69 94 1004.9
20260506224130 15 231 1.6 8.0 0.13 0.69 0.69 94 1004.9
20260506223631 15 131 3.2 8.0 0.13 0.69 0.69 94 1004.9
20260506223130 15 260 3.2 8.0 0.13 0.69 0.69 94 1005.0
20260506222630 15 238 1.6 6.4 0.15 0.69 0.69 94 1005.0
20260506222131 15 184 1.6 9.7 0.18 0.69 0.69 94 1005.0
20260506221630 15 229 1.6 9.7 0.18 0.69 0.69 94 1005.0
20260506221143 15 205 1.6 6.4 0.20 0.69 0.69 94 1005.0
20260506220630 15 205 1.6 6.4 0.20 0.69 0.69 94 1005.1
20260506220352 15 206 3.2 9.7 0.20 0.66 0.66 94 1005.2
20260506215629 15 188 3.2 9.7 0.18 0.64 0.64 93 1005.2
20260506215351 15 217 1.6 8.0 0.15 0.58 0.58 93 1005.2
20260506214631 15 248 1.6 6.4 0.15 0.58 0.58 93 1005.2
20260506214345 15 204 3.2 9.7 0.15 0.56 0.56 93 1005.3
20260506213627 15 220 3.2 12.9 0.18 0.56 0.56 93 1005.3
20260506213127 15 0 3.2 12.9 0.20 0.56 0.56 93 1005.3
20260506212627 15 225 3.2 9.7 0.20 0.56 0.56 93 1005.4
20260506212127 16 228 3.2 9.7 0.20 0.51 0.51 93 1005.3
20260506211627 16 0 3.2 8.0 0.18 0.51 0.51 93 1005.5
20260506211127 16 0 3.2 9.7 0.18 0.48 0.48 93 1005.4
20260506210627 16 141 3.2 9.7 0.18 0.48 0.48 93 1005.4
20260506210127 16 225 1.6 8.0 0.18 0.46 0.46 93 1005.4
20260506205627 16 0 3.2 8.0 0.18 0.46 0.46 93 1005.4
20260506205125 16 190 1.6 6.4 0.18 0.46 0.46 93 1005.4
20260506204625 16 0 1.6 6.4 0.15 0.43 0.43 93 1005.5
20260506204121 16 230 1.6 8.0 0.15 0.43 0.43 93 1005.5
20260506203622 16 172 1.6 8.0 0.10 0.38 0.38 93 1005.5
20260506203122 16 0 1.6 8.0 0.10 0.36 0.36 93 1005.6
20260506202622 16 0 3.2 8.0 0.10 0.33 0.33 93 1005.6
20260506202122 16 203 1.6 4.8 0.10 0.33 0.33 94 1005.5
20260506201621 16 0 0.0 4.8 0.10 0.30 0.30 94 1005.5
20260506201122 16 0 1.6 4.8 0.10 0.30 0.30 93 1005.5
20260506200622 16 0 0.0 3.2 0.10 0.28 0.28 93 1005.5
20260506200122 16 0 0.0 3.2 0.10 0.28 0.28 93 1005.3
20260506195622 16 0 0.0 3.2 0.10 0.28 0.28 93 1005.4
20260506195123 16 0 0.0 3.2 0.13 0.28 0.28 93 1005.5
20260506194619 16 228 0.0 4.8 0.15 0.28 0.28 92 1005.5
20260506194119 16 0 0.0 4.8 0.15 0.28 0.28 92 1005.4
20260506193616 16 0 0.0 3.2 0.15 0.28 0.28 92 1005.4
20260506193341 16 0 0.0 1.6 0.15 0.25 0.25 92 1005.5